This demonstration page uses our WeatherBlox Daily Observations layout. Learn more.

Left ArrowRight Arrow

36.19886, -115.1175

Hourly Observations for August 22, 2016

Temp ( °F °C ) Dew Point ( °F °C ) Humidity (%) Winds ( mph kmh ) Pressure ( in mb ) Visibility ( mi km ) Precip ( " mm )
12:53 am 00:53 Clear 81 27.2 51 10.6 35 35 WSW 8 13 29.89 1012 10 16.0934 0 0
1:53 am 01:53 Clear 82 27.8 51 10.6 34 34 Calm 29.87 1012 10 16.0934 0 0
2:53 am 02:53 Clear 81 27.2 50 10 34 34 Calm 29.85 1011 10 16.0934 0 0
3:53 am 03:53 Clear 80 26.7 50 10 35 35 VRB 3 6 29.85 1011 10 16.0934 0 0
4:53 am 04:53 Clear 79 26.1 51 10.6 38 38 Calm 29.85 1011 10 16.0934 0 0
5:53 am 05:53 Clear 78 25.6 51 10.6 39 39 ESE 5 7 29.87 1012 10 16.0934 0 0
6:53 am 06:53 Sunny 79 26.1 52 11.1 39 39 Calm 29.88 1012 10 16.0934 0 0
7:53 am 07:53 Sunny 80 26.7 53 11.7 39 39 Calm 29.91 1013 10 16.0934 0 0
8:53 am 08:53 Sunny 82 27.8 53 11.7 37 37 SE 5 7 29.91 1013 10 16.0934 0 0
9:53 am 09:53 Sunny 84 28.9 53 11.7 34 34 ESE 8 13 29.91 1013 10 16.0934 0 0
10:53 am 10:53 Sunny 88 31.1 53 11.7 30 30 ESE 12 19 29.91 1013 10 16.0934 0 0
11:53 am 11:53 Sunny 90 32.2 52 11.1 27 27 ESE 12 19 29.89 1012 10 16.0934 0 0
12:53 pm 12:53 Sunny 92 33.3 51 10.6 25 25 E 6 9 29.86 1011 10 16.0934 0 0
1:53 pm 13:53 Sunny 94 34.4 48 8.9 21 21 S 9 15 29.83 1010 10 16.0934 0 0
2:53 pm 14:53 Sunny 96 35.6 48 8.9 19 19 VRB 3 6 29.8 1009 10 16.0934 0 0
3:53 pm 15:53 Sunny 97 36.1 45 7.2 17 17 SSE 9 15 29.77 1008 10 16.0934 0 0
4:53 pm 16:53 Sunny 98 36.7 45 7.2 16 16 SE 10 17 29.76 1008 10 16.0934 0 0
5:53 pm 17:53 Sunny 95 35 48 8.9 20 20 ESE 8 13 29.76 1008 10 16.0934 0 0
6:53 pm 18:53 Sunny 95 35 47 8.3 19 19 SSE 12 19 29.76 1008 10 16.0934 0 0
7:36 pm 19:36 Cloudy 81 27 52 11 37 37 N 32 52 29.68 1005 10 16.0934 0 0
7:53 pm 19:53 Cloudy 79 26.1 56 13.3 45 45 NE 22 35 29.86 1011 10 16.0934 0 0
8:04 pm 20:04 Cloudy with Rain 72 22 61 16 69 69 ENE 28 44 29.8 1009 7 11.26538 0 0
8:53 pm 20:53 Partly Cloudy with Rain 70 21.1 60 15.6 71 71 ENE 13 20 29.95 1014 10 16.0934 0 0.0254
9:53 pm 21:53 Mostly Cloudy with Rain 71 21.7 63 17.2 76 76 ESE 17 28 29.98 1015 10 16.0934 0 0.0254
10:53 pm 22:53 Clear with Rain 71 21.7 61 16.1 71 71 SE 15 24 30.01 1016 10 16.0934 0 0.0254
11:53 pm 23:53 Clear with Rain 71 21.7 60 15.6 68 68 SSE 14 22 30.04 1017 10 16.0934 0 0.0254

Powered by AerisWeather